[[{"header":{"parameterUnit":"m.s-1","parameterCategory":1,"la1":30.2991,"la2":30.254,"lo1":-89.0895,"lo2":-89.0444,"dy":0.0017,"dx":0.0017,"nx":28,"ny":28,"refTime":"2023-10-04T21:00:00:Z","depth":0,"parameterNumber":2,"parameterNumberName":"U-component_of_WINDS"},"data":[0,0,0,0,0,0,0,0,0,0,0,0,0,0,0,0,0,0,0,0,0,0,0,0,0,0,0,0,0,0,0,0,0,0,0,0,0,0,0,0,0,0,0,0,0,0,0,0,0,0,0,0,0,0,0,0,0,0,-2.7902,-2.7903,0,-2.7928,-2.7928,-2.7928,-2.7845,-2.7842,-2.784,-2.7837,-2.7864,-2.7867,-2.787,0,0,0,0,0,0,0,0,0,0,0,0,0,-2.7782,-2.7784,-2.7902,-2.7903,-2.7903,-2.7928,-2.7928,-2.7928,-2.7845,-2.7842,-2.7839,-2.7836,-2.7863,-2.7866,-2.787,0,0,0,0,0,0,0,0,0,0,0,0,0,-2.7823,-2.7785,-2.7902,-2.7864,-2.7861,-2.7928,-2.7928,-2.7929,-2.7846,-2.7842,-2.7838,-2.7835,-2.7861,-2.7866,-2.787,-2.7974,0,0,-2.7884,-2.7886,0,0,0,0,0,0,0,0,-2.7821,-2.7828,-2.787,-2.7867,-2.7864,-2.7879,-2.7895,-2.7944,-2.7847,-2.7852,-2.7837,-2.7833,-2.7872,-2.7875,-2.7888,-2.7976,-2.7977,-2.7885,-2.7888,-2.789,-2.7891,0,0,0,0,0,0,0,-2.7818,-2.7826,-2.7912,-2.787,-2.7867,-2.7846,-2.7848,-2.7904,-2.7883,-2.7851,-2.7845,-2.7849,-2.787,-2.7884,-2.7888,-2.7977,-2.7885,-2.7889,-2.7892,-2.7893,-2.8151,-2.8155,0,0,0,0,0,0,-2.782,-2.7824,-2.7911,-2.7913,-2.7833,-2.7851,-2.7853,-2.7878,-2.7882,-2.7879,-2.7852,-2.7845,-2.7878,-2.7883,-2.7889,-2.801,-2.7889,-2.7894,-2.7896,-2.8147,-2.8152,-2.8156,0,0,0,0,0,0,-2.7818,-2.7829,-2.791,-2.7867,-2.7876,-2.7858,-2.7886,-2.7881,-2.7895,-2.7883,-2.7879,-2.7871,-2.7876,-2.7883,-2.7954,-2.801,-2.7896,-2.79,-2.8142,-2.8148,-2.8154,-2.8255,0,0,0,0,0,0,-2.7815,-2.7829,-2.7868,-2.7869,-2.7879,-2.7975,-2.789,-2.7884,-2.7903,-2.7894,-2.79,-2.7897,-2.7873,-2.7947,-2.7958,-2.8014,-2.7904,-2.8137,-2.8145,-2.8152,-2.8246,-2.8263,-2.8278,0,0,0,0,0,-2.7811,-2.7895,-2.787,-2.7881,-2.7927,-2.7978,-2.7984,-2.7955,-2.7908,-2.7947,-2.794,-2.7897,-2.8003,-2.7955,-2.7967,-2.8025,-2.8133,-2.8142,-2.8151,-2.8239,-2.826,-2.8278,0,0,0,0,0,0,-2.7902,-2.7895,-2.7867,-2.7954,-2.7967,-2.7964,-2.8013,-2.7978,-2.8005,-2.7995,-2.7958,-2.796,-2.8038,-2.8039,-2.7986,-2.8126,-2.806,-2.8072,-2.8122,-2.8142,-2.8158,-2.8156,-2.7907,0,0,0,0,0,-2.7932,-2.7974,-2.7966,-2.8043,-2.8051,-2.8031,-2.8052,-2.8029,-2.8041,-2.8046,-2.8044,-2.8058,-2.8094,-2.8118,-2.8151,-2.8246,-2.8246,-2.8292,-2.8308,-2.8322,-2.8332,-2.8382,-2.8402,-2.8186,-2.8186,-2.8186,0,0,-2.7994,-2.7996,-2.8025,-2.8062,-2.8069,-2.8113,-2.8037,-2.8087,-2.8119,-2.8054,-2.812,-2.812,-2.8132,-2.8216,-2.8253,-2.8219,-2.8392,-2.8333,-2.8344,-2.8347,-2.8394,-2.8414,-2.8432,-2.8192,-2.8191,-2.819,0,0,-2.8131,-2.8137,-2.8201,-2.8211,-2.8223,-2.8209,-2.8225,-2.8228,-2.8224,-2.8291,-2.8243,-2.8281,-2.8344,-2.8355,-2.8369,-2.8511,-2.8472,-2.8523,-2.8606,-2.8655,-2.8672,-2.8687,-2.8737,-2.8755,-2.8533,-2.8533,-2.8534,0,-2.8207,-2.8271,-2.8239,-2.8293,-2.831,-2.8254,-2.8319,-2.833,-2.8353,-2.8366,-2.8328,-2.8407,-2.8411,-2.8496,-2.8531,-2.8545,-2.8561,-2.8521,-2.8672,-2.8687,-2.87,-2.8747,-2.8766,-2.8539,-2.8539,-2.8538,-2.8538,0,-2.8364,-2.841,-2.8461,-2.8484,-2.8507,-2.8567,-2.8544,-2.8571,-2.8546,-2.8536,-2.8605,-2.8609,-2.8641,-2.866,-2.8636,-2.8742,-2.872,-2.8679,-2.8611,-2.8727,-2.8771,-2.8789,-2.8548,-2.8546,-2.8544,-2.8543,0,0,-2.8557,-2.8562,-2.8581,-2.8591,-2.8601,-2.8636,-2.8693,-2.8724,-2.8748,-2.8766,-2.8813,-2.8868,-2.8829,-2.8845,-2.8822,-2.8865,-2.8976,-2.8817,-2.8817,-2.8846,-2.9092,-2.9123,-2.9145,-2.8951,-2.8955,-2.8957,-2.9091,0,-2.869,-2.8787,-2.876,-2.8857,-2.8898,-2.8846,-2.8895,-2.8907,-2.89,-2.8934,-2.8926,-2.8965,-2.8911,-2.8921,-2.8961,-2.8954,-2.9025,-2.8944,-2.8994,-2.8996,-2.8991,-2.9167,-2.92,-2.9326,-2.9108,-2.9111,-2.9113,0,-2.8858,-2.8883,-2.8984,-2.8987,-2.9003,-2.9048,-2.9075,-2.9108,-2.912,-2.9112,-2.913,-2.9099,-2.9155,-2.9088,-2.9164,-2.911,-2.9129,-2.9129,-2.9133,-2.9135,-2.906,-2.9174,-2.9366,-2.9384,-2.9139,-2.9137,-2.9135,0,-2.8988,-2.9046,-2.9114,-2.9124,-2.9129,-2.9162,-2.9166,-2.9174,-2.9195,-2.9219,-2.9232,-2.9262,-2.9278,-2.9303,-2.928,-2.9233,-2.936,-2.9291,-2.9354,-2.9355,-2.9382,-2.938,-2.9578,-2.9396,-2.9396,-2.9395,-2.9395,0,-2.9139,-2.9203,-2.9172,-2.9214,-2.9283,-2.9252,-2.9322,-2.932,-2.9328,-2.9368,-2.9325,-2.9364,-2.9332,-2.9368,-2.9351,-2.9417,-2.9425,-2.9419,-2.9414,-2.9423,-2.9423,-2.9433,-2.9424,-2.94,-2.9399,-2.9398,-2.9398,0,-2.9295,-2.9277,-2.9347,-2.9347,-2.9348,-2.94,-2.9399,-2.9437,-2.9427,-2.9479,-2.9489,-2.9473,-2.9514,-2.9494,-2.9536,-2.9524,-2.9609,-2.9592,-2.9604,-2.9599,-2.9663,-2.9657,-2.9874,-2.9901,-2.9702,-2.9704,-2.9706,0,-2.9392,-2.9439,-2.9444,-2.9468,-2.9475,-2.9514,-2.9534,-2.9506,-2.9529,-2.9547,-2.9584,-2.962,-2.9648,-2.9714,-2.9707,-2.9739,-2.9722,-2.9796,-2.9726,-2.9733,-2.9722,-2.9719,-2.9723,-2.9809,-2.9812,-2.9813,-2.9815,0,-2.9566,-2.9554,-2.9586,-2.9615,-2.9641,-2.9663,-2.968,-2.9702,-2.9674,-2.9703,-2.9744,-2.9765,-2.9808,-2.9845,-2.9872,-2.9876,-2.9841,-2.9837,-2.9853,-2.9862,-2.9867,-2.9864,-2.9641,-2.9832,-2.983,-2.9829,-2.9828,-2.9827,-2.9694,-2.9734,-2.9743,-2.978,-2.979,-2.9808,-2.9844,-2.9839,-2.9872,-2.9904,-2.9885,-2.9933,-2.9944,-2.9978,-2.9986,-3.0023,-2.9994,-3.0017,-3.0023,-3.0029,-3.0037,-2.9862,-3.0028,-3.0028,-3.0027,-3.0027,-3.0026,0,-2.9865,-2.9868,-2.9903,-2.9929,-2.9958,-2.9922,-2.994,-2.9967,-3.0009,-3.0022,-3.005,-3.0097,-3.0132,-3.0128,-3.016,-3.0191,-3.0175,-3.02,-3.0197,-3.0198,-3.0062,-3.0044,-3.0212,-3.0212,-3.0212,-3.0212,-3.0212,-3.0212,-2.9957,-3.0022,-3.0012,-3.0082,-3.0085,-3.0131,-3.0144,-3.016,-3.0171,-3.0224,-3.0254,-3.025,-3.0257,-3.0289,-3.032,-3.0318,-3.0332,-3.0362,-3.0354,-3.0226,-3.0208,-3.019,-3.0174,-3.0366,-3.0366,-3.0487,-3.0488,-3.0489]},{"header":{"parameterUnit":"m.s-1","parameterCategory":1,"la1":30.2991,"la2":30.254,"lo1":-89.0895,"lo2":-89.0444,"dy":0.0017,"dx":0.0017,"nx":28,"ny":28,"refTime":"2023-10-04T21:00:00:Z","depth":0,"parameterNumber":3,"parameterNumberName":"V-component_of_WINDS"},"data":[0,0,0,0,0,0,0,0,0,0,0,0,0,0,0,0,0,0,0,0,0,0,0,0,0,0,0,0,0,0,0,0,0,0,0,0,0,0,0,0,0,0,0,0,0,0,0,0,0,0,0,0,0,0,0,0,0,0,1.9053,1.9054,0,1.9088,1.9089,1.9089,1.9085,1.9084,1.9083,1.9083,1.9116,1.9117,1.9118,0,0,0,0,0,0,0,0,0,0,0,0,0,1.8979,1.898,1.9053,1.9054,1.9054,1.9088,1.9089,1.9089,1.9085,1.9084,1.9083,1.9083,1.9115,1.9117,1.9119,0,0,0,0,0,0,0,0,0,0,0,0,0,1.9012,1.8981,1.9053,1.9056,1.9057,1.9088,1.9089,1.9089,1.9085,1.9084,1.9083,1.9082,1.9115,1.9117,1.9119,1.9149,0,0,1.9125,1.9126,0,0,0,0,0,0,0,0,1.9011,1.9015,1.9055,1.9056,1.9057,1.9081,1.9075,1.9109,1.9085,1.9074,1.9083,1.9082,1.9105,1.9108,1.9116,1.915,1.9152,1.9125,1.9127,1.9128,1.9128,0,0,0,0,0,0,0,1.9008,1.9014,1.9067,1.9056,1.9057,1.9055,1.9058,1.9081,1.9094,1.9075,1.9075,1.9079,1.9105,1.9114,1.9117,1.9152,1.9125,1.9127,1.9128,1.9129,1.9213,1.9214,0,0,0,0,0,0,1.9006,1.9012,1.9066,1.9068,1.9031,1.9057,1.9061,1.9074,1.9093,1.9096,1.908,1.9079,1.9111,1.9114,1.9118,1.9154,1.9128,1.9129,1.9131,1.9212,1.9213,1.9214,0,0,0,0,0,0,1.9004,1.9011,1.9065,1.904,1.9047,1.9059,1.9074,1.9075,1.9084,1.9097,1.9099,1.9087,1.911,1.9115,1.9141,1.9155,1.913,1.9132,1.9211,1.9212,1.9213,1.9226,0,0,0,0,0,0,1.9002,1.901,1.9022,1.904,1.9048,1.9088,1.9075,1.9077,1.9088,1.9087,1.9104,1.9106,1.911,1.9138,1.9143,1.9157,1.9134,1.9209,1.9211,1.9213,1.9225,1.9228,1.9231,0,0,0,0,0,1.8999,1.9024,1.9023,1.9029,1.9064,1.9089,1.9093,1.9098,1.909,1.9101,1.911,1.9106,1.9153,1.9141,1.9147,1.9162,1.9209,1.9211,1.9213,1.9223,1.9227,1.9231,0,0,0,0,0,0,1.9005,1.9026,1.9025,1.9056,1.9071,1.9088,1.9103,1.9102,1.9119,1.9117,1.9121,1.9125,1.9152,1.9159,1.9146,1.9192,1.9179,1.9183,1.9185,1.9189,1.9192,1.9189,1.9136,0,0,0,0,0,1.9011,1.9031,1.9047,1.9073,1.9081,1.9091,1.9102,1.9105,1.912,1.9125,1.9136,1.9149,1.9167,1.9179,1.9196,1.9226,1.9229,1.9239,1.9242,1.9245,1.9247,1.9263,1.9268,1.9221,1.9221,1.9221,0,0,1.9021,1.9035,1.9047,1.9075,1.9086,1.9106,1.9096,1.9117,1.9132,1.9128,1.9154,1.9162,1.9178,1.9206,1.9219,1.9213,1.9261,1.9248,1.925,1.9251,1.9266,1.927,1.9274,1.9223,1.9222,1.9222,0,0,1.905,1.9063,1.9086,1.9098,1.9117,1.9123,1.9129,1.9147,1.9152,1.9178,1.9176,1.9193,1.9224,1.9235,1.9245,1.9279,1.9276,1.9285,1.93,1.9316,1.9319,1.9323,1.9334,1.9338,1.9287,1.9287,1.9287,0,1.906,1.9091,1.9097,1.9119,1.9131,1.9131,1.9153,1.9165,1.9187,1.9195,1.9189,1.9228,1.9238,1.9269,1.9277,1.9286,1.9291,1.9282,1.9319,1.9322,1.9325,1.9336,1.934,1.9288,1.9288,1.9288,1.9288,0,1.9102,1.9124,1.914,1.9163,1.9177,1.9199,1.9208,1.9221,1.9222,1.923,1.9256,1.9269,1.9289,1.9296,1.9298,1.9327,1.9323,1.9318,1.9305,1.933,1.9341,1.9345,1.929,1.9289,1.9289,1.9289,0,0,1.9135,1.9162,1.9168,1.9179,1.9199,1.9215,1.9237,1.9258,1.9268,1.9284,1.9302,1.9329,1.9324,1.9335,1.9338,1.9352,1.9377,1.9344,1.9345,1.9349,1.941,1.9413,1.9418,1.9376,1.9377,1.9377,1.9408,0,1.9165,1.9205,1.9212,1.9246,1.9265,1.9266,1.9285,1.9299,1.9306,1.9323,1.9331,1.935,1.9342,1.9349,1.9363,1.9371,1.9389,1.9369,1.9391,1.9392,1.9386,1.9423,1.9427,1.9455,1.9412,1.9413,1.9414,0,1.9206,1.9224,1.9261,1.9279,1.9287,1.9304,1.9324,1.934,1.9356,1.936,1.9373,1.9375,1.9396,1.9384,1.9414,1.94,1.941,1.9415,1.9416,1.9417,1.9403,1.9424,1.9465,1.9468,1.942,1.942,1.9419,0,1.9225,1.9258,1.9285,1.9294,1.9316,1.9328,1.9337,1.9353,1.9365,1.9382,1.9389,1.9408,1.9418,1.9432,1.9438,1.9429,1.9467,1.9455,1.947,1.947,1.9477,1.9476,1.9518,1.9485,1.9485,1.9485,1.9485,0,1.9257,1.9279,1.9294,1.931,1.9334,1.9342,1.9365,1.9375,1.9388,1.9405,1.9407,1.9423,1.943,1.9447,1.9452,1.9475,1.9479,1.9483,1.9484,1.9482,1.9482,1.9487,1.9485,1.9486,1.9486,1.9485,1.9485,0,1.9282,1.9293,1.9321,1.9341,1.9346,1.9363,1.9379,1.9394,1.9402,1.9424,1.9429,1.9441,1.9461,1.9468,1.9492,1.9495,1.9522,1.9522,1.9517,1.9517,1.9531,1.9529,1.9577,1.9583,1.9547,1.9547,1.9548,0,1.9302,1.9319,1.9341,1.9353,1.9363,1.9382,1.9395,1.9403,1.9416,1.9436,1.9448,1.9468,1.9485,1.9516,1.9526,1.9544,1.9544,1.956,1.9546,1.9544,1.9543,1.9541,1.9543,1.9561,1.9562,1.9562,1.9562,0,1.9335,1.934,1.9358,1.9379,1.9394,1.9411,1.9426,1.9436,1.9446,1.9461,1.9482,1.9494,1.9519,1.9539,1.9558,1.9567,1.9566,1.9567,1.9571,1.9569,1.9565,1.9566,1.9522,1.9565,1.9565,1.9565,1.9564,1.9564,1.9357,1.9373,1.939,1.9411,1.9424,1.9439,1.9454,1.9465,1.9482,1.9504,1.9508,1.953,1.9545,1.9571,1.958,1.9597,1.9593,1.9599,1.9601,1.9602,1.9602,1.9563,1.9601,1.9601,1.9601,1.9601,1.96,0,1.939,1.9402,1.9421,1.9444,1.946,1.9459,1.9477,1.949,1.951,1.9525,1.9542,1.9565,1.9584,1.9597,1.9616,1.9627,1.9627,1.9631,1.963,1.9632,1.9605,1.9599,1.9631,1.9631,1.9631,1.9631,1.9631,1.9631,1.9409,1.9435,1.9441,1.9473,1.9485,1.9507,1.9517,1.9531,1.9543,1.957,1.9586,1.9594,1.9608,1.9628,1.9645,1.9648,1.9655,1.9659,1.9662,1.9637,1.9634,1.9631,1.9625,1.9661,1.9661,1.9687,1.9687,1.9687]}]]